User: anonymous   Login
Location: Fort Wayne
(41.1310°N, 85.1290°W)
Time: 05:18:24
(UTC-05:00)
Language:

Meteor 2-9 Rocket - Orbit

View from above orbital plane
View from above orbital plane
View from above satellite
View from above satellite

Ground track
Ground track

The orbit data is extracted from the following two-line orbital elements,

1 13719U 82116B   18020.88075285 -.00000026 +00000-0 -19971-4 0  9994
2 13719 081.2558 147.1156 0072635 091.8518 056.6361 14.14617686811148
Epoch (UTC): 20 January 2018 21:08:17
Eccentricity: 0.0072635
inclination: 81.2558°
perigee height: 791 km
apogee height: 896 km
right ascension of ascending node: 147.1156°
argument of perigee: 91.8518°
revolutions per day: 14.14617686
mean anomaly at epoch: 56.6361°
orbit number at epoch: 81114

The dashed part of the orbit path shows where the satellite is in the earth's shadow,  

DLR